Location: La Brionne
(46.1728°N, 1.7849°E)
Time: 14:06:01
(UTC+00:00)

Cosmos 389 Rocket - Visible Passes

Search period start: 22 October 2021 00:00
Search period end: 01 November 2021 00:00
Orbit: 438 x 470 km, 81.1° (Epoch: 22 October)

Date Brightness Start Highest point End Pass type
(mag) Time Alt. Az. Time Alt. Az. Time Alt. Az.
22 Oct 5.6 03:30:11 10° SE 03:30:11 10° SE 03:30:16 10° SE visible
22 Oct 4.6 05:04:08 13° SW 05:04:08 13° SW 05:04:40 10° SW visible
22 Oct 6.1 18:43:47 10° WNW 18:43:58 10° WNW 18:44:08 10° WNW visible
23 Oct 5.3 18:07:03 10° WSW 18:09:33 19° WNW 18:12:04 10° NNW visible
24 Oct 4.1 17:32:03 10° SW 17:35:14 36° WNW 17:38:27 10° N visible
26 Oct 5.7 18:00:18 10° W 18:01:46 12° WNW 18:03:14 10° NW visible
27 Oct 5.0 17:24:36 10° SW 17:27:21 23° WNW 17:30:10 10° NNW visible
30 Oct 5.4 17:17:29 10° WSW 17:19:30 15° WNW 17:21:32 10° NNW visible
